St. Petersburg Airport, FL

6:11 PM EDT on April 26, 2018 (GMT -0400)
Saint Petersburg-Clearwater International

Weather History for KPIE - January, 2014

Change the Weather History Date:

Thursday, January 30, 2014

  Actual Average Record
Temperature  
Mean Temperature 48 °F -  
Max Temperature 51 °F 70 °F 83 °F (1975)
Min Temperature 44 °F 54 °F 38 °F (1977)
Degree Days  
Heating Degree Days 18    
Moisture  
Dew Point 46 °F    
Average Humidity 92    
Maximum Humidity 97    
Minimum Humidity 89    
Precipitation  
Precipitation 0.26 in - - ()
Sea Level Pressure  
Sea Level Pressure 30.15 in    
Wind  
Wind Speed 10 mph (NE)    
Max Wind Speed 12 mph    
Max Gust Speed -    
Visibility 8 miles    
Events Rain    
Averages and records for this station are not official NWS values.
T = Trace of Precipitation, MM = Missing Value Source: NWS Daily Summary

Daily Weather History Graph

Daily Weather History Graph

Search for Another Location

Airport or City:

Astronomy

Jan. 30, 2014 Rise Set
Actual Time 7:18 AM EST 6:09 PM EST
Civil Twilight 6:54 AM EST 6:34 PM EST
Nautical Twilight 6:25 AM EST 7:02 PM EST
Astronomical Twilight 5:58 AM EST 7:30 PM EST
Moon 6:47 AM EST (1/30) 6:14 PM EST (1/30)
Length of Visible Light 11h 40m
Length of Day
10h 51m
Waning Crescent, 0% of the Moon is Illuminated
Jan 30
Waning Crescent
Jan 30
New
Feb 6
First Quarter
Feb 14
Full
Feb 22
Last Quarter

Hourly Weather History & Observations

Time (EST) Temp. Windchill Dew Point Humidity Pressure Visibility Wind Dir Wind Speed Gust Speed Precip Events Conditions
12:53 AM 46.9 °F - 44.1 °F 90% 30.17 in 10.0 mi NNE 11.5 mph - 0.00 in   Overcast
1:53 AM 46.0 °F 41.0 °F 44.1 °F 93% 30.18 in 10.0 mi North 10.4 mph - 0.02 in Rain Light Rain
2:53 AM 46.0 °F 41.4 °F 44.1 °F 93% 30.16 in 8.0 mi North 9.2 mph - 0.06 in Rain Light Rain
3:53 AM 46.0 °F 41.0 °F 44.1 °F 93% 30.16 in 9.0 mi NNE 10.4 mph - 0.07 in Rain Light Rain
4:53 AM 45.0 °F 39.3 °F 43.0 °F 93% 30.14 in 8.0 mi NNE 11.5 mph - 0.04 in Rain Light Rain
5:53 AM 45.0 °F 39.3 °F 43.0 °F 93% 30.16 in 10.0 mi NNE 11.5 mph - 0.02 in   Overcast
6:53 AM 45.0 °F 39.7 °F 42.1 °F 90% 30.16 in 10.0 mi NNE 10.4 mph - N/A   Overcast
7:53 AM 45.0 °F 39.7 °F 43.0 °F 93% 30.17 in 10.0 mi NE 10.4 mph - N/A   Overcast
8:53 AM 44.1 °F 38.1 °F 42.1 °F 93% 30.18 in 10.0 mi NNE 11.5 mph - 0.02 in Rain Light Rain
9:53 AM 45.0 °F 40.6 °F 43.0 °F 93% 30.19 in 10.0 mi NE 8.1 mph - 0.00 in   Overcast
10:53 AM 46.0 °F 41.4 °F 44.1 °F 93% 30.22 in 7.0 mi North 9.2 mph - 0.00 in Rain Light Rain
11:53 AM 46.9 °F - 45.0 °F 93% 30.19 in 9.0 mi NNE 10.4 mph - 0.02 in Rain Light Rain
12:53 PM 48.0 °F - 46.0 °F 93% 30.16 in 10.0 mi North 9.2 mph - 0.01 in   Overcast
1:53 PM 48.9 °F - 46.9 °F 93% 30.13 in 10.0 mi NNE 8.1 mph - N/A   Overcast
2:53 PM 48.9 °F - 46.9 °F 93% 30.11 in 10.0 mi NNE 9.2 mph - N/A   Overcast
3:53 PM 50.0 °F - 46.9 °F 89% 30.12 in 10.0 mi NNE 9.2 mph - N/A   Overcast
4:53 PM 48.9 °F - 48.0 °F 97% 30.12 in 2.5 mi NNE 9.2 mph - N/A   Overcast
5:51 PM 50.0 °F - 48.2 °F 94% 30.14 in 2.5 mi NE 5.8 mph - N/A   Overcast
5:53 PM 50.0 °F - 48.0 °F 93% 30.14 in 2.5 mi ENE 6.9 mph - N/A   Overcast
5:55 PM 50.0 °F - 48.0 °F 93% 30.14 in 2.5 mi NE 4.6 mph - N/A   Overcast
6:03 PM 50.0 °F - 48.9 °F 96% 30.14 in 2.5 mi NE 6.9 mph - N/A   Overcast
6:53 PM 50.0 °F - 48.9 °F 96% 30.14 in 3.0 mi NE 8.1 mph - N/A   Overcast
7:10 PM 50.0 °F - 48.9 °F 96% 30.13 in 4.0 mi NE 6.9 mph - N/A   Overcast
7:53 PM 51.1 °F - 48.9 °F 92% 30.13 in 10.0 mi ENE 8.1 mph - N/A   Overcast
8:53 PM 51.1 °F - 48.0 °F 89% 30.13 in 10.0 mi NE 8.1 mph - N/A   Overcast
9:53 PM 51.1 °F - 48.0 °F 89% 30.13 in 10.0 mi NE 9.2 mph - N/A   Overcast
10:21 PM 51.1 °F - 48.0 °F 89% 30.12 in 10.0 mi ENE 10.4 mph - N/A   Overcast
10:53 PM 51.1 °F - 48.0 °F 89% 30.13 in 10.0 mi ENE 8.1 mph - N/A   Overcast
11:22 PM 51.1 °F - 48.0 °F 89% 30.13 in 10.0 mi ENE 9.2 mph - N/A   Overcast
11:53 PM 51.1 °F - 48.0 °F 89% 30.13 in 10.0 mi NE 6.9 mph - N/A   Overcast